Terminal Aerodrome Forecast
Issued by NWS Indianapolis, IN

Home | Current Version | Previous Version | Text Only | Print | Product List | Glossary On
Versions: 1 2 3 4 5 6 7 8 9 10 11 12 13 14 15 16 17 18 19 20 21 22 23 24 25
000
FTUS43 KIND 301631 AAC
TAFIND
TAF AMD
KIND 301631Z 3017/3118 21012KT P6SM SCT040 BKN120
     FM310100 19005KT P6SM BKN100
     FM311500 22008KT P6SM SCT040 BKN120=

USA.gov is the U.S. government's official web portal to all federal, state and local government web resources and services.